User: anonymous   Login
Location: Austin
(30.3000°N, 97.7500°W)
Time: 20:18:28
(UTC-05:00)
Language:

Cosmos 1844 - Orbit

View from above orbital plane
View from above orbital plane
View from above satellite
View from above satellite

Ground track
Ground track

The orbit data is extracted from the following two-line orbital elements,

1 17973U 87041A   24147.92997322 -.00000256  00000-0 -10812-3 0  9998
2 17973  70.8993 328.6797 0033431 280.2336  79.5016 14.14324998911425
Epoch (UTC): 26 May 2024 22:19:09
Eccentricity: 0.0033431
inclination: 70.8993°
perigee height: 820 km
apogee height: 869 km
right ascension of ascending node: 328.6797°
argument of perigee: 280.2336°
revolutions per day: 14.14324998
mean anomaly at epoch: 79.5016°
orbit number at epoch: 91142

The dashed part of the orbit path shows where the satellite is in the earth's shadow,  

DLR